Zurück zum Katalog

FENGYUN 1C DEB

AktivPO
NORAD 36990·DEBRIS·🇨🇳 China

Gestartet May 10, 1999 von Taiyuan Satellite Launch Center

Loading…

Nächste Überflüge (nächste 24 Stunden)

TLE

AlterndSource: Space-Track

Epoche: Sep 5, 2026, 21:26 UTC

1 36990U 99025EBW 26248.89333552  .00000297  00000-0  34012-3 0  9993
2 36990  96.5751 114.7307 0290700  11.9440 348.8411 13.57210866865111

Verfolge FENGYUN 1C DEB in Echtzeit mit AllMySat

Download on the App Store